Time,TemperatureF,DewpointF,PressureIn,WindDirection,WindDirectionDegrees,WindSpeedMPH,WindSpeedGustMPH,Humidity,HourlyPrecipIn,Conditions,Clouds,dailyrainin,SoftwareType,DateUTC
2013-11-21 00:00:00,28.2,22.8,30.50,SE,141,0.0,4.0,80,0.00,,,0.00,WUHU216DAVISVP2,2013-11-21 05:00:00,
2013-11-21 00:01:00,28.2,22.8,30.50,SE,141,1.0,4.0,80,0.00,,,0.00,WUHU216DAVISVP2,2013-11-21 05:01:00,
2013-11-21 00:02:00,28.1,23.0,30.50,NE,41,2.0,4.0,81,0.00,,,0.00,WUHU216DAVISVP2,2013-11-21 05:02:00,
2013-11-21 00:07:00,28.0,22.9,30.50,NNE,25,0.0,3.0,81,0.00,,,0.00,WUHU216DAVISVP2,2013-11-21 05:07:00,
2013-11-21 00:12:00,27.8,22.4,30.50,NNE,25,0.0,3.0,80,0.00,,,0.00,WUHU216DAVISVP2,2013-11-21 05:12:00,
2013-11-21 00:17:00,27.7,22.3,30.50,NNE,25,1.0,3.0,80,0.00,,,0.00,WUHU216DAVISVP2,2013-11-21 05:17:00,
2013-11-21 00:22:00,27.8,22.4,30.49,NNE,25,2.0,3.0,80,0.00,,,0.00,WUHU216DAVISVP2,2013-11-21 05:22:00,
2013-11-21 00:27:00,27.8,22.4,30.49,NNE,25,1.0,3.0,80,0.00,,,0.00,WUHU216DAVISVP2,2013-11-21 05:27:00,
2013-11-21 00:32:00,27.8,22.1,30.49,NNE,25,0.0,3.0,79,0.00,,,0.00,WUHU216DAVISVP2,2013-11-21 05:32:00,
2013-11-21 00:37:00,27.8,22.1,30.49,NNE,25,0.0,3.0,79,0.00,,,0.00,WUHU216DAVISVP2,2013-11-21 05:37:00,
2013-11-21 00:42:00,27.6,22.2,30.49,NNE,25,0.0,3.0,80,0.00,,,0.00,WUHU216DAVISVP2,2013-11-21 05:42:00,
2013-11-21 00:47:00,27.4,22.0,30.49,ESE,116,0.0,2.0,80,0.00,,,0.00,WUHU216DAVISVP2,2013-11-21 05:47:00,
2013-11-21 00:52:00,27.2,21.9,30.49,ESE,116,0.0,2.0,80,0.00,,,0.00,WUHU216DAVISVP2,2013-11-21 05:52:00,
2013-11-21 00:57:00,26.9,21.8,30.49,ESE,116,0.0,3.0,81,0.00,,,0.00,WUHU216DAVISVP2,2013-11-21 05:57:00,
2013-11-21 01:02:00,26.7,21.9,30.49,ESE,104,0.0,3.0,82,0.00,,,0.00,WUHU216DAVISVP2,2013-11-21 06:02:00,
2013-11-21 01:07:00,26.7,21.9,30.49,SE,146,0.0,3.0,82,0.00,,,0.00,WUHU216DAVISVP2,2013-11-21 06:07:00,
2013-11-21 01:12:00,26.7,22.2,30.48,SE,146,0.0,3.0,83,0.00,,,0.00,WUHU216DAVISVP2,2013-11-21 06:12:00,
2013-11-21 01:17:00,26.8,22.3,30.49,SE,146,0.0,2.0,83,0.00,,,0.00,WUHU216DAVISVP2,2013-11-21 06:17:00,
2013-11-21 01:22:00,26.9,22.4,30.48,SE,146,0.0,3.0,83,0.00,,,0.00,WUHU216DAVISVP2,2013-11-21 06:22:00,
2013-11-21 01:27:00,26.9,22.4,30.48,SE,146,1.0,3.0,83,0.00,,,0.00,WUHU216DAVISVP2,2013-11-21 06:27:00,
2013-11-21 01:32:00,27.1,22.3,30.49,North,354,1.0,3.0,82,0.00,,,0.00,WUHU216DAVISVP2,2013-11-21 06:32:00,
2013-11-21 01:37:00,27.4,22.9,30.48,North,354,1.0,4.0,83,0.00,,,0.00,WUHU216DAVISVP2,2013-11-21 06:37:00,
2013-11-21 01:42:00,27.5,22.7,30.49,NNE,21,0.0,4.0,82,0.00,,,0.00,WUHU216DAVISVP2,2013-11-21 06:42:00,
2013-11-21 01:47:00,27.4,22.6,30.49,NNE,16,0.0,4.0,82,0.00,,,0.00,WUHU216DAVISVP2,2013-11-21 06:47:00,
2013-11-21 01:52:00,27.4,22.6,30.49,NE,35,0.0,4.0,82,0.00,,,0.00,WUHU216DAVISVP2,2013-11-21 06:52:00,
2013-11-21 01:57:00,27.5,22.7,30.49,North,4,0.0,4.0,82,0.00,,,0.00,WUHU216DAVISVP2,2013-11-21 06:57:00,
2013-11-21 02:02:00,27.6,22.5,30.49,North,4,0.0,4.0,81,0.00,,,0.00,WUHU216DAVISVP2,2013-11-21 07:02:00,
2013-11-21 02:07:00,27.6,22.5,30.48,North,4,0.0,4.0,81,0.00,,,0.00,WUHU216DAVISVP2,2013-11-21 07:07:00,
2013-11-21 02:12:00,27.6,22.5,30.49,North,4,0.0,4.0,81,0.00,,,0.00,WUHU216DAVISVP2,2013-11-21 07:12:00,
2013-11-21 02:17:00,27.5,22.7,30.48,North,4,0.0,3.0,82,0.00,,,0.00,WUHU216DAVISVP2,2013-11-21 07:17:00,
2013-11-21 02:22:00,27.5,22.7,30.49,North,4,0.0,3.0,82,0.00,,,0.00,WUHU216DAVISVP2,2013-11-21 07:22:00,
2013-11-21 02:27:00,27.4,22.6,30.49,North,4,0.0,3.0,82,0.00,,,0.00,WUHU216DAVISVP2,2013-11-21 07:27:00,
2013-11-21 02:32:00,27.0,22.5,30.49,North,4,0.0,3.0,83,0.00,,,0.00,WUHU216DAVISVP2,2013-11-21 07:32:00,
2013-11-21 02:37:00,26.7,22.5,30.50,North,4,0.0,3.0,84,0.00,,,0.00,WUHU216DAVISVP2,2013-11-21 07:37:00,
2013-11-21 02:42:00,26.6,22.7,30.50,North,4,0.0,3.0,85,0.00,,,0.00,WUHU216DAVISVP2,2013-11-21 07:42:00,
2013-11-21 02:47:00,26.6,22.7,30.50,North,4,0.0,3.0,85,0.00,,,0.00,WUHU216DAVISVP2,2013-11-21 07:47:00,
2013-11-21 02:52:00,26.6,22.7,30.50,North,4,0.0,3.0,85,0.00,,,0.00,WUHU216DAVISVP2,2013-11-21 07:52:00,
2013-11-21 02:57:00,26.5,22.6,30.50,North,4,0.0,3.0,85,0.00,,,0.00,WUHU216DAVISVP2,2013-11-21 07:57:00,
2013-11-21 03:02:00,26.3,22.4,30.50,North,4,0.0,2.0,85,0.00,,,0.00,WUHU216DAVISVP2,2013-11-21 08:02:00,
2013-11-21 03:07:00,26.2,22.3,30.50,North,4,0.0,2.0,85,0.00,,,0.00,WUHU216DAVISVP2,2013-11-21 08:07:00,
2013-11-21 03:12:00,26.1,22.2,30.50,North,4,0.0,2.0,85,0.00,,,0.00,WUHU216DAVISVP2,2013-11-21 08:12:00,
2013-11-21 03:17:00,26.1,22.5,30.51,North,4,2.0,3.0,86,0.00,,,0.00,WUHU216DAVISVP2,2013-11-21 08:17:00,
2013-11-21 03:22:00,26.2,22.6,30.50,North,4,0.0,3.0,86,0.00,,,0.00,WUHU216DAVISVP2,2013-11-21 08:22:00,
2013-11-21 03:27:00,26.3,22.6,30.50,North,4,2.0,3.0,86,0.00,,,0.00,WUHU216DAVISVP2,2013-11-21 08:27:00,
2013-11-21 03:32:00,26.6,22.9,30.50,North,4,0.0,3.0,86,0.00,,,0.00,WUHU216DAVISVP2,2013-11-21 08:32:00,
2013-11-21 03:37:00,26.7,22.8,30.50,North,4,1.0,3.0,85,0.00,,,0.00,WUHU216DAVISVP2,2013-11-21 08:37:00,
2013-11-21 03:42:00,26.9,23.0,30.50,North,4,0.0,3.0,85,0.00,,,0.00,WUHU216DAVISVP2,2013-11-21 08:42:00,
2013-11-21 03:47:00,27.0,23.1,30.50,North,4,0.0,3.0,85,0.00,,,0.00,WUHU216DAVISVP2,2013-11-21 08:47:00,
2013-11-21 03:52:00,27.1,23.2,30.50,North,4,0.0,3.0,85,0.00,,,0.00,WUHU216DAVISVP2,2013-11-21 08:52:00,
2013-11-21 03:56:00,27.0,23.1,30.50,North,4,0.0,2.0,85,0.00,,,0.00,WUHU216DAVISVP2,2013-11-21 08:56:00,
2013-11-21 04:02:00,26.9,23.0,30.50,North,4,0.0,1.0,85,0.00,,,0.00,WUHU216DAVISVP2,2013-11-21 09:02:00,
2013-11-21 04:06:00,26.7,22.8,30.50,North,4,0.0,1.0,85,0.00,,,0.00,WUHU216DAVISVP2,2013-11-21 09:06:00,
2013-11-21 04:11:00,26.6,22.7,30.50,North,4,0.0,1.0,85,0.00,,,0.00,WUHU216DAVISVP2,2013-11-21 09:11:00,
2013-11-21 04:16:00,26.3,22.4,30.50,North,4,0.0,1.0,85,0.00,,,0.00,WUHU216DAVISVP2,2013-11-21 09:16:00,
2013-11-21 04:21:00,26.2,22.3,30.50,North,4,0.0,0.0,85,0.00,,,0.00,WUHU216DAVISVP2,2013-11-21 09:21:00,
2013-11-21 04:26:00,26.0,22.1,30.50,North,4,0.0,0.0,85,0.00,,,0.00,WUHU216DAVISVP2,2013-11-21 09:26:00,
2013-11-21 04:31:00,25.9,22.3,30.50,North,4,0.0,0.0,86,0.00,,,0.00,WUHU216DAVISVP2,2013-11-21 09:31:00,
2013-11-21 04:36:00,25.7,22.1,30.49,North,4,0.0,0.0,86,0.00,,,0.00,WUHU216DAVISVP2,2013-11-21 09:36:00,
2013-11-21 04:41:00,25.6,22.0,30.49,North,4,0.0,0.0,86,0.00,,,0.00,WUHU216DAVISVP2,2013-11-21 09:41:00,
2013-11-21 04:46:00,25.4,22.0,30.49,North,4,0.0,0.0,87,0.00,,,0.00,WUHU216DAVISVP2,2013-11-21 09:46:00,
2013-11-21 04:51:00,25.3,21.9,30.49,North,4,0.0,0.0,87,0.00,,,0.00,WUHU216DAVISVP2,2013-11-21 09:51:00,
2013-11-21 04:56:00,25.2,21.8,30.49,North,4,0.0,0.0,87,0.00,,,0.00,WUHU216DAVISVP2,2013-11-21 09:56:00,
2013-11-21 05:01:00,25.1,21.7,30.50,North,4,0.0,0.0,87,0.00,,,0.00,WUHU216DAVISVP2,2013-11-21 10:01:00,
2013-11-21 05:06:00,24.8,21.4,30.49,North,4,0.0,0.0,87,0.00,,,0.00,WUHU216DAVISVP2,2013-11-21 10:06:00,
2013-11-21 05:11:00,24.7,21.3,30.49,North,4,0.0,0.0,87,0.00,,,0.00,WUHU216DAVISVP2,2013-11-21 10:11:00,
2013-11-21 05:16:00,24.5,21.4,30.49,North,4,0.0,0.0,88,0.00,,,0.00,WUHU216DAVISVP2,2013-11-21 10:16:00,
2013-11-21 05:21:00,24.4,21.3,30.49,North,4,0.0,0.0,88,0.00,,,0.00,WUHU216DAVISVP2,2013-11-21 10:21:00,
2013-11-21 05:26:00,24.3,21.2,30.49,North,4,0.0,0.0,88,0.00,,,0.00,WUHU216DAVISVP2,2013-11-21 10:26:00,
2013-11-21 05:31:00,24.2,21.2,30.49,North,4,0.0,0.0,88,0.00,,,0.00,WUHU216DAVISVP2,2013-11-21 10:31:00,
2013-11-21 05:36:00,24.0,20.9,30.49,North,4,0.0,0.0,88,0.00,,,0.00,WUHU216DAVISVP2,2013-11-21 10:36:00,
2013-11-21 05:41:00,23.9,21.1,30.49,North,4,0.0,0.0,89,0.00,,,0.00,WUHU216DAVISVP2,2013-11-21 10:41:00,
2013-11-21 05:46:00,23.8,21.0,30.49,North,4,0.0,0.0,89,0.00,,,0.00,WUHU216DAVISVP2,2013-11-21 10:46:00,
2013-11-21 05:51:00,23.6,20.8,30.49,North,4,0.0,0.0,89,0.00,,,0.00,WUHU216DAVISVP2,2013-11-21 10:51:00,
2013-11-21 05:56:00,23.6,20.8,30.48,North,4,0.0,0.0,89,0.00,,,0.00,WUHU216DAVISVP2,2013-11-21 10:56:00,
2013-11-21 06:01:00,23.5,21.0,30.49,North,4,0.0,1.0,90,0.00,,,0.00,WUHU216DAVISVP2,2013-11-21 11:01:00,
2013-11-21 06:06:00,23.6,21.0,30.49,North,4,0.0,1.0,90,0.00,,,0.00,WUHU216DAVISVP2,2013-11-21 11:06:00,
2013-11-21 06:11:00,23.6,21.0,30.49,North,4,0.0,1.0,90,0.00,,,0.00,WUHU216DAVISVP2,2013-11-21 11:11:00,
2013-11-21 06:16:00,23.6,21.0,30.49,North,4,0.0,1.0,90,0.00,,,0.00,WUHU216DAVISVP2,2013-11-21 11:16:00,
2013-11-21 06:21:00,23.5,21.0,30.50,North,4,0.0,0.0,90,0.00,,,0.00,WUHU216DAVISVP2,2013-11-21 11:21:00,
2013-11-21 06:26:00,23.4,20.9,30.50,North,4,0.0,0.0,90,0.00,,,0.00,WUHU216DAVISVP2,2013-11-21 11:26:00,
2013-11-21 06:31:00,23.4,20.9,30.50,North,4,0.0,1.0,90,0.00,,,0.00,WUHU216DAVISVP2,2013-11-21 11:31:00,
2013-11-21 06:36:00,23.4,21.2,30.50,North,4,0.0,1.0,91,0.00,,,0.00,WUHU216DAVISVP2,2013-11-21 11:36:00,
2013-11-21 06:41:00,23.3,21.0,30.51,North,4,0.0,1.0,91,0.00,,,0.00,WUHU216DAVISVP2,2013-11-21 11:41:00,
2013-11-21 06:46:00,23.3,21.0,30.51,North,4,0.0,1.0,91,0.00,,,0.00,WUHU216DAVISVP2,2013-11-21 11:46:00,
2013-11-21 06:51:00,23.2,21.0,30.50,North,4,0.0,0.0,91,0.00,,,0.00,WUHU216DAVISVP2,2013-11-21 11:51:00,
2013-11-21 06:56:00,23.1,20.9,30.51,North,4,0.0,0.0,91,0.00,,,0.00,WUHU216DAVISVP2,2013-11-21 11:56:00,
2013-11-21 07:01:00,23.0,20.7,30.52,North,4,0.0,0.0,91,0.00,,,0.00,WUHU216DAVISVP2,2013-11-21 12:01:00,
2013-11-21 07:06:00,22.9,20.6,30.52,North,4,0.0,0.0,91,0.00,,,0.00,WUHU216DAVISVP2,2013-11-21 12:06:00,
2013-11-21 07:11:00,22.9,20.6,30.52,North,4,0.0,0.0,91,0.00,,,0.00,WUHU216DAVISVP2,2013-11-21 12:11:00,
2013-11-21 07:16:00,22.9,20.6,30.53,North,4,0.0,0.0,91,0.00,,,0.00,WUHU216DAVISVP2,2013-11-21 12:16:00,
2013-11-21 07:21:00,22.8,20.5,30.53,North,4,0.0,0.0,91,0.00,,,0.00,WUHU216DAVISVP2,2013-11-21 12:21:00,
2013-11-21 07:26:00,22.8,20.8,30.53,North,4,0.0,0.0,92,0.00,,,0.00,WUHU216DAVISVP2,2013-11-21 12:26:00,
2013-11-21 07:31:00,23.0,21.0,30.53,North,4,0.0,1.0,92,0.00,,,0.00,WUHU216DAVISVP2,2013-11-21 12:31:00,
2013-11-21 07:36:00,23.2,21.5,30.53,North,4,0.0,1.0,93,0.00,,,0.00,WUHU216DAVISVP2,2013-11-21 12:36:00,
2013-11-21 07:41:00,23.3,21.5,30.53,North,4,0.0,1.0,93,0.00,,,0.00,WUHU216DAVISVP2,2013-11-21 12:41:00,
2013-11-21 07:46:00,23.5,21.7,30.53,North,4,0.0,1.0,93,0.00,,,0.00,WUHU216DAVISVP2,2013-11-21 12:46:00,
2013-11-21 07:51:00,23.8,22.0,30.53,North,4,0.0,0.0,93,0.00,,,0.00,WUHU216DAVISVP2,2013-11-21 12:51:00,
2013-11-21 07:56:00,24.1,22.6,30.53,North,4,0.0,0.0,94,0.00,,,0.00,WUHU216DAVISVP2,2013-11-21 12:56:00,
2013-11-21 08:01:00,24.3,22.8,30.52,North,4,0.0,0.0,94,0.00,,,0.00,WUHU216DAVISVP2,2013-11-21 13:01:00,
2013-11-21 08:06:00,24.6,23.1,30.52,North,4,0.0,0.0,94,0.00,,,0.00,WUHU216DAVISVP2,2013-11-21 13:06:00,
2013-11-21 08:11:00,24.9,23.4,30.52,North,4,0.0,0.0,94,0.00,,,0.00,WUHU216DAVISVP2,2013-11-21 13:11:00,
2013-11-21 08:16:00,25.2,23.4,30.52,North,4,0.0,0.0,93,0.00,,,0.00,WUHU216DAVISVP2,2013-11-21 13:16:00,
2013-11-21 08:21:00,25.4,23.6,30.52,North,4,0.0,0.0,93,0.00,,,0.00,WUHU216DAVISVP2,2013-11-21 13:21:00,
2013-11-21 08:26:00,25.7,23.9,30.52,North,4,0.0,0.0,93,0.00,,,0.00,WUHU216DAVISVP2,2013-11-21 13:26:00,
2013-11-21 08:31:00,26.2,24.4,30.52,North,4,0.0,0.0,93,0.00,,,0.00,WUHU216DAVISVP2,2013-11-21 13:31:00,
2013-11-21 08:36:00,26.7,24.9,30.52,North,4,0.0,0.0,93,0.00,,,0.00,WUHU216DAVISVP2,2013-11-21 13:36:00,
2013-11-21 08:41:00,27.3,25.2,30.53,North,4,0.0,0.0,92,0.00,,,0.00,WUHU216DAVISVP2,2013-11-21 13:41:00,
2013-11-21 08:46:00,27.8,25.7,30.53,North,4,0.0,0.0,92,0.00,,,0.00,WUHU216DAVISVP2,2013-11-21 13:46:00,
2013-11-21 08:51:00,28.4,26.1,30.53,North,4,0.0,1.0,91,0.00,,,0.00,WUHU216DAVISVP2,2013-11-21 13:51:00,
2013-11-21 08:56:00,29.0,26.7,30.53,North,4,0.0,1.0,91,0.00,,,0.00,WUHU216DAVISVP2,2013-11-21 13:56:00,
2013-11-21 09:01:00,29.6,27.0,30.52,North,4,0.0,1.0,90,0.00,,,0.00,WUHU216DAVISVP2,2013-11-21 14:01:00,
2013-11-21 09:06:00,30.1,27.0,30.52,North,4,0.0,1.0,88,0.00,,,0.00,WUHU216DAVISVP2,2013-11-21 14:06:00,
2013-11-21 09:11:00,30.5,27.1,30.52,North,4,1.0,1.0,87,0.00,,,0.00,WUHU216DAVISVP2,2013-11-21 14:11:00,
2013-11-21 09:16:00,30.9,27.5,30.51,North,4,0.0,1.0,87,0.00,,,0.00,WUHU216DAVISVP2,2013-11-21 14:16:00,
2013-11-21 09:21:00,31.3,27.6,30.51,North,4,0.0,1.0,86,0.00,,,0.00,WUHU216DAVISVP2,2013-11-21 14:21:00,
2013-11-21 09:26:00,31.5,27.8,30.50,North,4,0.0,1.0,86,0.00,,,0.00,WUHU216DAVISVP2,2013-11-21 14:26:00,
2013-11-21 09:31:00,31.7,27.7,30.50,North,4,0.0,1.0,85,0.00,,,0.00,WUHU216DAVISVP2,2013-11-21 14:31:00,
2013-11-21 09:36:00,32.0,27.7,30.50,North,4,0.0,1.0,84,0.00,,,0.00,WUHU216DAVISVP2,2013-11-21 14:36:00,
2013-11-21 09:41:00,32.2,27.9,30.50,North,4,0.0,1.0,84,0.00,,,0.00,WUHU216DAVISVP2,2013-11-21 14:41:00,
2013-11-21 09:46:00,32.4,28.1,30.50,North,4,0.0,1.0,84,0.00,,,0.00,WUHU216DAVISVP2,2013-11-21 14:46:00,
2013-11-21 09:51:00,32.6,28.0,30.50,North,4,0.0,1.0,83,0.00,,,0.00,WUHU216DAVISVP2,2013-11-21 14:51:00,
2013-11-21 09:56:00,32.8,28.2,30.50,North,4,0.0,1.0,83,0.00,,,0.00,WUHU216DAVISVP2,2013-11-21 14:56:00,
2013-11-21 10:01:00,33.0,28.4,30.50,North,4,0.0,1.0,83,0.00,,,0.00,WUHU216DAVISVP2,2013-11-21 15:01:00,
2013-11-21 10:06:00,33.4,29.1,30.50,North,4,0.0,1.0,84,0.00,,,0.00,WUHU216DAVISVP2,2013-11-21 15:06:00,
2013-11-21 10:11:00,33.9,29.9,30.50,ENE,73,0.0,2.0,85,0.00,,,0.00,WUHU216DAVISVP2,2013-11-21 15:11:00,
2013-11-21 10:16:00,34.3,30.2,30.50,ENE,75,0.0,2.0,85,0.00,,,0.00,WUHU216DAVISVP2,2013-11-21 15:16:00,
2013-11-21 10:21:00,34.8,30.4,30.50,ENE,75,0.0,2.0,84,0.00,,,0.00,WUHU216DAVISVP2,2013-11-21 15:21:00,
2013-11-21 10:26:00,35.5,30.5,30.49,ENE,75,0.0,2.0,82,0.00,,,0.00,WUHU216DAVISVP2,2013-11-21 15:26:00,
2013-11-21 10:31:00,36.2,30.3,30.49,ESE,109,1.0,2.0,79,0.00,,,0.00,WUHU216DAVISVP2,2013-11-21 15:31:00,
2013-11-21 10:36:00,37.1,31.2,30.49,NNW,347,1.0,2.0,79,0.00,,,0.00,WUHU216DAVISVP2,2013-11-21 15:36:00,
2013-11-21 10:41:00,37.7,30.9,30.49,NNW,347,1.0,2.0,76,0.00,,,0.00,WUHU216DAVISVP2,2013-11-21 15:41:00,
2013-11-21 10:46:00,38.1,31.2,30.49,NNW,347,0.0,2.0,76,0.00,,,0.00,WUHU216DAVISVP2,2013-11-21 15:46:00,
2013-11-21 10:51:00,38.9,31.7,30.49,NNW,347,0.0,2.0,75,0.00,,,0.00,WUHU216DAVISVP2,2013-11-21 15:51:00,
2013-11-21 10:56:00,39.9,32.3,30.49,NNW,347,0.0,2.0,74,0.00,,,0.00,WUHU216DAVISVP2,2013-11-21 15:56:00,
2013-11-21 11:01:00,41.1,32.5,30.49,WNW,287,2.0,2.0,71,0.00,,,0.00,WUHU216DAVISVP2,2013-11-21 16:01:00,
2013-11-21 11:06:00,42.0,33.0,30.48,West,260,0.0,2.0,70,0.00,,,0.00,WUHU216DAVISVP2,2013-11-21 16:06:00,
2013-11-21 11:11:00,42.3,33.6,30.48,West,260,0.0,2.0,71,0.00,,,0.00,WUHU216DAVISVP2,2013-11-21 16:11:00,
2013-11-21 11:16:00,43.2,33.1,30.48,SW,216,0.0,2.0,67,0.00,,,0.00,WUHU216DAVISVP2,2013-11-21 16:16:00,
2013-11-21 11:21:00,43.8,33.3,30.48,SW,216,1.0,2.0,66,0.00,,,0.00,WUHU216DAVISVP2,2013-11-21 16:21:00,
2013-11-21 11:26:00,44.3,33.0,30.48,SW,227,1.0,2.0,64,0.00,,,0.00,WUHU216DAVISVP2,2013-11-21 16:26:00,
2013-11-21 11:31:00,44.9,33.2,30.47,West,264,1.0,2.0,63,0.00,,,0.00,WUHU216DAVISVP2,2013-11-21 16:31:00,
2013-11-21 11:36:00,45.0,33.2,30.46,West,272,0.0,2.0,63,0.00,,,0.00,WUHU216DAVISVP2,2013-11-21 16:36:00,
2013-11-21 11:41:00,45.4,33.6,30.46,WSW,257,0.0,2.0,63,0.00,,,0.00,WUHU216DAVISVP2,2013-11-21 16:41:00,
2013-11-21 11:46:00,45.6,33.4,30.46,WSW,258,0.0,2.0,62,0.00,,,0.00,WUHU216DAVISVP2,2013-11-21 16:46:00,
2013-11-21 11:51:00,45.6,33.8,30.46,West,268,0.0,2.0,63,0.00,,,0.00,WUHU216DAVISVP2,2013-11-21 16:51:00,
2013-11-21 11:56:00,46.1,34.3,30.46,SW,234,2.0,3.0,63,0.00,,,0.00,WUHU216DAVISVP2,2013-11-21 16:56:00,
2013-11-21 12:01:00,46.8,34.1,30.46,WSW,257,0.0,3.0,61,0.00,,,0.00,WUHU216DAVISVP2,2013-11-21 17:01:00,
2013-11-21 12:06:00,47.2,34.1,30.45,WSW,257,0.0,3.0,60,0.00,,,0.00,WUHU216DAVISVP2,2013-11-21 17:06:00,
2013-11-21 12:11:00,47.9,34.8,30.45,WSW,257,0.0,3.0,60,0.00,,,0.00,WUHU216DAVISVP2,2013-11-21 17:11:00,
2013-11-21 12:16:00,48.4,34.4,30.44,WSW,257,0.0,2.0,58,0.00,,,0.00,WUHU216DAVISVP2,2013-11-21 17:16:00,
2013-11-21 12:21:00,49.1,35.9,30.44,WSW,257,0.0,2.0,60,0.00,,,0.00,WUHU216DAVISVP2,2013-11-21 17:21:00,
2013-11-21 12:26:00,49.5,35.0,30.44,WSW,257,0.0,2.0,57,0.00,,,0.00,WUHU216DAVISVP2,2013-11-21 17:26:00,
2013-11-21 12:31:00,49.5,35.0,30.44,WSW,257,0.0,2.0,57,0.00,,,0.00,WUHU216DAVISVP2,2013-11-21 17:31:00,
2013-11-21 12:36:00,49.5,35.4,30.43,WSW,257,0.0,2.0,58,0.00,,,0.00,WUHU216DAVISVP2,2013-11-21 17:36:00,
2013-11-21 12:41:00,50.0,35.4,30.43,SW,222,1.0,2.0,57,0.00,,,0.00,WUHU216DAVISVP2,2013-11-21 17:41:00,
2013-11-21 12:46:00,50.5,35.4,30.42,SW,227,0.0,2.0,56,0.00,,,0.00,WUHU216DAVISVP2,2013-11-21 17:46:00,
2013-11-21 12:51:00,50.9,35.8,30.42,West,260,1.0,3.0,56,0.00,,,0.00,WUHU216DAVISVP2,2013-11-21 17:51:00,
2013-11-21 12:56:00,50.6,34.6,30.42,West,260,0.0,3.0,54,0.00,,,0.00,WUHU216DAVISVP2,2013-11-21 17:56:00,
2013-11-21 13:01:00,50.5,35.4,30.42,West,260,0.0,3.0,56,0.00,,,0.00,WUHU216DAVISVP2,2013-11-21 18:01:00,
2013-11-21 13:06:00,50.8,35.7,30.42,WSW,243,0.0,4.0,56,0.00,,,0.00,WUHU216DAVISVP2,2013-11-21 18:06:00,
2013-11-21 13:11:00,50.9,35.3,30.42,WSW,240,0.0,4.0,55,0.00,,,0.00,WUHU216DAVISVP2,2013-11-21 18:11:00,
2013-11-21 13:16:00,50.8,35.7,30.41,WSW,240,0.0,4.0,56,0.00,,,0.00,WUHU216DAVISVP2,2013-11-21 18:16:00,
2013-11-21 13:21:00,50.4,35.3,30.41,West,260,1.0,4.0,56,0.00,,,0.00,WUHU216DAVISVP2,2013-11-21 18:21:00,
2013-11-21 13:26:00,50.0,35.4,30.41,West,272,0.0,3.0,57,0.00,,,0.00,WUHU216DAVISVP2,2013-11-21 18:26:00,
2013-11-21 13:31:00,49.9,35.3,30.41,West,273,2.0,2.0,57,0.00,,,0.00,WUHU216DAVISVP2,2013-11-21 18:31:00,
2013-11-21 13:36:00,49.9,35.8,30.40,West,273,0.0,2.0,58,0.00,,,0.00,WUHU216DAVISVP2,2013-11-21 18:36:00,
2013-11-21 13:41:00,50.1,36.0,30.40,West,273,0.0,2.0,58,0.00,,,0.00,WUHU216DAVISVP2,2013-11-21 18:41:00,
2013-11-21 13:46:00,50.2,36.1,30.40,West,273,0.0,2.0,58,0.00,,,0.00,WUHU216DAVISVP2,2013-11-21 18:46:00,
2013-11-21 13:51:00,50.3,36.2,30.40,West,273,1.0,1.0,58,0.00,,,0.00,WUHU216DAVISVP2,2013-11-21 18:51:00,
2013-11-21 13:56:00,50.3,37.0,30.40,West,273,0.0,1.0,60,0.00,,,0.00,WUHU216DAVISVP2,2013-11-21 18:56:00,
2013-11-21 14:01:00,50.8,36.2,30.39,West,273,0.0,1.0,57,0.00,,,0.00,WUHU216DAVISVP2,2013-11-21 19:01:00,
2013-11-21 14:06:00,51.1,36.9,30.39,West,273,0.0,2.0,58,0.00,,,0.00,WUHU216DAVISVP2,2013-11-21 19:06:00,
2013-11-21 14:11:00,51.3,36.6,30.39,West,274,0.0,3.0,57,0.00,,,0.00,WUHU216DAVISVP2,2013-11-21 19:11:00,
2013-11-21 14:16:00,51.1,36.0,30.38,West,274,0.0,3.0,56,0.00,,,0.00,WUHU216DAVISVP2,2013-11-21 19:16:00,
2013-11-21 14:21:00,51.1,36.9,30.38,West,274,0.0,3.0,58,0.00,,,0.00,WUHU216DAVISVP2,2013-11-21 19:21:00,
2013-11-21 14:26:00,51.4,36.7,30.38,West,274,0.0,3.0,57,0.00,,,0.00,WUHU216DAVISVP2,2013-11-21 19:26:00,
2013-11-21 14:31:00,51.3,36.6,30.37,West,274,0.0,0.0,57,0.00,,,0.00,WUHU216DAVISVP2,2013-11-21 19:31:00,
2013-11-21 14:36:00,51.4,36.7,30.38,West,274,0.0,0.0,57,0.00,,,0.00,WUHU216DAVISVP2,2013-11-21 19:36:00,
2013-11-21 14:41:00,51.6,37.4,30.38,West,274,0.0,1.0,58,0.00,,,0.00,WUHU216DAVISVP2,2013-11-21 19:41:00,
2013-11-21 14:46:00,51.6,36.9,30.38,West,274,0.0,1.0,57,0.00,,,0.00,WUHU216DAVISVP2,2013-11-21 19:46:00,
2013-11-21 14:51:00,51.8,37.0,30.38,West,274,0.0,1.0,57,0.00,,,0.00,WUHU216DAVISVP2,2013-11-21 19:51:00,
2013-11-21 14:56:00,52.2,37.4,30.38,West,274,0.0,1.0,57,0.00,,,0.00,WUHU216DAVISVP2,2013-11-21 19:56:00,
2013-11-21 15:01:00,52.6,37.8,30.37,West,274,0.0,1.0,57,0.00,,,0.00,WUHU216DAVISVP2,2013-11-21 20:01:00,
2013-11-21 15:06:00,52.8,38.0,30.36,West,274,0.0,1.0,57,0.00,,,0.00,WUHU216DAVISVP2,2013-11-21 20:06:00,
2013-11-21 15:11:00,52.8,37.5,30.36,West,274,0.0,1.0,56,0.00,,,0.00,WUHU216DAVISVP2,2013-11-21 20:11:00,
2013-11-21 15:16:00,53.1,38.3,30.36,West,274,0.0,1.0,57,0.00,,,0.00,WUHU216DAVISVP2,2013-11-21 20:16:00,
2013-11-21 15:21:00,53.3,38.4,30.37,West,274,0.0,1.0,57,0.00,,,0.00,WUHU216DAVISVP2,2013-11-21 20:21:00,
2013-11-21 15:26:00,53.2,37.5,30.36,West,274,0.0,1.0,55,0.00,,,0.00,WUHU216DAVISVP2,2013-11-21 20:26:00,
2013-11-21 15:31:00,53.2,38.4,30.37,West,274,0.0,1.0,57,0.00,,,0.00,WUHU216DAVISVP2,2013-11-21 20:31:00,
2013-11-21 15:36:00,53.3,38.5,30.37,West,274,0.0,1.0,57,0.00,,,0.00,WUHU216DAVISVP2,2013-11-21 20:36:00,
2013-11-21 15:41:00,53.3,38.1,30.37,West,274,0.0,1.0,56,0.00,,,0.00,WUHU216DAVISVP2,2013-11-21 20:41:00,
2013-11-21 15:46:00,53.2,38.9,30.37,West,274,0.0,1.0,58,0.00,,,0.00,WUHU216DAVISVP2,2013-11-21 20:46:00,
2013-11-21 15:51:00,53.0,38.7,30.37,West,274,0.0,0.0,58,0.00,,,0.00,WUHU216DAVISVP2,2013-11-21 20:51:00,
2013-11-21 15:56:00,52.6,38.8,30.37,West,274,0.0,0.0,59,0.00,,,0.00,WUHU216DAVISVP2,2013-11-21 20:56:00,
2013-11-21 16:01:00,52.2,39.7,30.37,West,274,0.0,0.0,62,0.00,,,0.00,WUHU216DAVISVP2,2013-11-21 21:01:00,
2013-11-21 16:06:00,51.6,39.1,30.37,West,274,0.0,0.0,62,0.00,,,0.00,WUHU216DAVISVP2,2013-11-21 21:06:00,
2013-11-21 16:11:00,50.9,38.9,30.37,West,274,0.0,0.0,63,0.00,,,0.00,WUHU216DAVISVP2,2013-11-21 21:11:00,
2013-11-21 16:16:00,50.3,39.1,30.37,West,274,0.0,0.0,65,0.00,,,0.00,WUHU216DAVISVP2,2013-11-21 21:16:00,
2013-11-21 16:21:00,49.8,38.2,30.37,West,274,0.0,0.0,64,0.00,,,0.00,WUHU216DAVISVP2,2013-11-21 21:21:00,
2013-11-21 16:26:00,49.6,38.8,30.37,West,274,0.0,0.0,66,0.00,,,0.00,WUHU216DAVISVP2,2013-11-21 21:26:00,
2013-11-21 16:31:00,49.4,38.6,30.37,West,274,0.0,0.0,66,0.00,,,0.00,WUHU216DAVISVP2,2013-11-21 21:31:00,
2013-11-21 16:36:00,49.2,39.2,30.37,West,274,0.0,0.0,68,0.00,,,0.00,WUHU216DAVISVP2,2013-11-21 21:36:00,
2013-11-21 16:41:00,48.8,38.8,30.37,West,274,0.0,0.0,68,0.00,,,0.00,WUHU216DAVISVP2,2013-11-21 21:41:00,
2013-11-21 16:46:00,48.6,38.6,30.37,West,274,0.0,0.0,68,0.00,,,0.00,WUHU216DAVISVP2,2013-11-21 21:46:00,
2013-11-21 16:51:00,48.4,38.8,30.37,West,274,0.0,0.0,69,0.00,,,0.00,WUHU216DAVISVP2,2013-11-21 21:51:00,
2013-11-21 16:56:00,48.2,39.3,30.37,West,274,0.0,0.0,71,0.00,,,0.00,WUHU216DAVISVP2,2013-11-21 21:56:00,
2013-11-21 17:01:00,47.9,39.4,30.37,West,274,0.0,1.0,72,0.00,,,0.00,WUHU216DAVISVP2,2013-11-21 22:01:00,
2013-11-21 17:06:00,47.8,39.3,30.37,West,274,0.0,1.0,72,0.00,,,0.00,WUHU216DAVISVP2,2013-11-21 22:06:00,
2013-11-21 17:11:00,47.7,39.2,30.37,West,274,0.0,1.0,72,0.00,,,0.00,WUHU216DAVISVP2,2013-11-21 22:11:00,
2013-11-21 17:16:00,47.3,39.2,30.37,West,274,0.0,1.0,73,0.00,,,0.00,WUHU216DAVISVP2,2013-11-21 22:16:00,
2013-11-21 17:21:00,47.0,38.9,30.36,West,274,0.0,0.0,73,0.00,,,0.00,WUHU216DAVISVP2,2013-11-21 22:21:00,
2013-11-21 17:26:00,46.6,38.8,30.36,West,274,0.0,0.0,74,0.00,,,0.00,WUHU216DAVISVP2,2013-11-21 22:26:00,
2013-11-21 17:30:00,46.3,38.5,30.36,West,274,0.0,0.0,74,0.00,,,0.00,WUHU216DAVISVP2,2013-11-21 22:30:00,
2013-11-21 17:36:00,46.0,38.9,30.36,West,274,0.0,0.0,76,0.00,,,0.00,WUHU216DAVISVP2,2013-11-21 22:36:00,
2013-11-21 17:40:00,45.6,38.2,30.36,West,274,0.0,2.0,75,0.00,,,0.00,WUHU216DAVISVP2,2013-11-21 22:40:00,
2013-11-21 17:45:00,45.4,38.3,30.37,West,274,0.0,2.0,76,0.00,,,0.00,WUHU216DAVISVP2,2013-11-21 22:45:00,
2013-11-21 17:50:00,45.0,38.3,30.37,West,274,0.0,2.0,77,0.00,,,0.00,WUHU216DAVISVP2,2013-11-21 22:50:00,
2013-11-21 17:55:00,44.9,38.5,30.37,West,274,0.0,2.0,78,0.00,,,0.00,WUHU216DAVISVP2,2013-11-21 22:55:00,
2013-11-21 18:00:00,44.7,38.6,30.37,West,274,0.0,1.0,79,0.00,,,0.00,WUHU216DAVISVP2,2013-11-21 23:00:00,
2013-11-21 18:05:00,44.7,38.6,30.37,West,274,0.0,0.0,79,0.00,,,0.00,WUHU216DAVISVP2,2013-11-21 23:05:00,
2013-11-21 18:10:00,44.6,38.8,30.37,West,274,0.0,0.0,80,0.00,,,0.00,WUHU216DAVISVP2,2013-11-21 23:10:00,
2013-11-21 18:15:00,44.5,38.7,30.37,West,274,0.0,0.0,80,0.00,,,0.00,WUHU216DAVISVP2,2013-11-21 23:15:00,
2013-11-21 18:20:00,44.3,38.9,30.38,West,274,0.0,0.0,81,0.00,,,0.00,WUHU216DAVISVP2,2013-11-21 23:20:00,
2013-11-21 18:25:00,44.2,38.8,30.38,West,274,0.0,0.0,81,0.00,,,0.00,WUHU216DAVISVP2,2013-11-21 23:25:00,
2013-11-21 18:30:00,44.1,38.7,30.38,West,274,0.0,0.0,81,0.00,,,0.00,WUHU216DAVISVP2,2013-11-21 23:30:00,
2013-11-21 18:35:00,43.9,38.2,30.38,West,274,0.0,0.0,80,0.00,,,0.00,WUHU216DAVISVP2,2013-11-21 23:35:00,
2013-11-21 18:40:00,43.8,38.4,30.38,West,274,0.0,0.0,81,0.00,,,0.00,WUHU216DAVISVP2,2013-11-21 23:40:00,
2013-11-21 18:45:00,43.8,39.0,30.38,West,274,0.0,0.0,83,0.00,,,0.00,WUHU216DAVISVP2,2013-11-21 23:45:00,
2013-11-21 18:50:00,43.8,39.0,30.38,West,274,0.0,0.0,83,0.00,,,0.00,WUHU216DAVISVP2,2013-11-21 23:50:00,
2013-11-21 18:55:00,43.7,38.6,30.38,West,274,0.0,0.0,82,0.00,,,0.00,WUHU216DAVISVP2,2013-11-21 23:55:00,
2013-11-21 19:00:00,43.7,38.6,30.38,West,274,0.0,0.0,82,0.00,,,0.00,WUHU216DAVISVP2,2013-11-22 00:00:00,
2013-11-21 19:05:00,43.7,38.6,30.38,West,274,0.0,0.0,82,0.00,,,0.00,WUHU216DAVISVP2,2013-11-22 00:05:00,
2013-11-21 19:10:00,43.7,38.9,30.38,West,274,0.0,0.0,83,0.00,,,0.00,WUHU216DAVISVP2,2013-11-22 00:10:00,
2013-11-21 19:15:00,43.7,38.9,30.38,West,274,0.0,0.0,83,0.00,,,0.00,WUHU216DAVISVP2,2013-11-22 00:15:00,
2013-11-21 19:20:00,43.7,38.9,30.38,West,274,0.0,0.0,83,0.00,,,0.00,WUHU216DAVISVP2,2013-11-22 00:20:00,
2013-11-21 19:25:00,43.7,38.9,30.37,West,274,0.0,0.0,83,0.00,,,0.00,WUHU216DAVISVP2,2013-11-22 00:25:00,
2013-11-21 19:30:00,43.8,39.0,30.37,West,274,0.0,0.0,83,0.00,,,0.00,WUHU216DAVISVP2,2013-11-22 00:30:00,
2013-11-21 19:35:00,43.8,39.0,30.37,West,274,0.0,0.0,83,0.00,,,0.00,WUHU216DAVISVP2,2013-11-22 00:35:00,
2013-11-21 19:40:00,43.8,38.7,30.38,West,274,0.0,1.0,82,0.00,,,0.00,WUHU216DAVISVP2,2013-11-22 00:40:00,
2013-11-21 19:45:00,43.8,38.7,30.37,West,274,0.0,1.0,82,0.00,,,0.00,WUHU216DAVISVP2,2013-11-22 00:45:00,
2013-11-21 19:50:00,43.8,38.7,30.38,West,274,0.0,1.0,82,0.00,,,0.00,WUHU216DAVISVP2,2013-11-22 00:50:00,
2013-11-21 19:55:00,43.9,38.8,30.38,West,274,0.0,1.0,82,0.00,,,0.00,WUHU216DAVISVP2,2013-11-22 00:55:00,
2013-11-21 20:00:00,44.0,38.9,30.37,West,274,0.0,1.0,82,0.00,,,0.00,WUHU216DAVISVP2,2013-11-22 01:00:00,
2013-11-21 20:05:00,44.1,39.0,30.37,West,274,0.0,1.0,82,0.00,,,0.00,WUHU216DAVISVP2,2013-11-22 01:05:00,
2013-11-21 20:10:00,44.1,39.3,30.37,West,274,0.0,0.0,83,0.00,,,0.00,WUHU216DAVISVP2,2013-11-22 01:10:00,
2013-11-21 20:15:00,44.1,39.3,30.37,West,274,0.0,0.0,83,0.00,,,0.00,WUHU216DAVISVP2,2013-11-22 01:15:00,
2013-11-21 20:20:00,44.0,39.2,30.37,West,274,0.0,0.0,83,0.00,,,0.00,WUHU216DAVISVP2,2013-11-22 01:20:00,
2013-11-21 20:25:00,44.0,39.2,30.37,West,274,0.0,0.0,83,0.00,,,0.00,WUHU216DAVISVP2,2013-11-22 01:25:00,
2013-11-21 20:30:00,44.0,39.2,30.37,West,274,0.0,0.0,83,0.00,,,0.00,WUHU216DAVISVP2,2013-11-22 01:30:00,
2013-11-21 20:35:00,44.0,38.9,30.37,West,274,0.0,0.0,82,0.00,,,0.00,WUHU216DAVISVP2,2013-11-22 01:35:00,
2013-11-21 20:40:00,44.0,38.9,30.37,West,274,0.0,0.0,82,0.00,,,0.00,WUHU216DAVISVP2,2013-11-22 01:40:00,
2013-11-21 20:45:00,44.0,39.2,30.36,West,274,0.0,0.0,83,0.00,,,0.00,WUHU216DAVISVP2,2013-11-22 01:45:00,
2013-11-21 20:50:00,44.0,38.9,30.36,West,274,0.0,0.0,82,0.00,,,0.00,WUHU216DAVISVP2,2013-11-22 01:50:00,
2013-11-21 20:55:00,43.9,39.1,30.36,West,274,0.0,0.0,83,0.00,,,0.00,WUHU216DAVISVP2,2013-11-22 01:55:00,
2013-11-21 21:00:00,43.8,38.7,30.36,West,274,0.0,0.0,82,0.00,,,0.00,WUHU216DAVISVP2,2013-11-22 02:00:00,
2013-11-21 21:05:00,43.7,38.9,30.36,West,274,0.0,0.0,83,0.00,,,0.00,WUHU216DAVISVP2,2013-11-22 02:05:00,
2013-11-21 21:08:00,43.7,38.9,30.36,West,274,0.0,0.0,83,0.00,,,0.00,WUHU216DAVISVP2,2013-11-22 02:08:00,
2013-11-21 21:09:00,43.7,38.9,30.36,West,274,0.0,0.0,83,0.00,,,0.00,WUHU216DAVISVP2,2013-11-22 02:09:00,
2013-11-21 21:14:00,43.6,39.1,30.36,West,274,0.0,0.0,84,0.00,,,0.00,WUHU216DAVISVP2,2013-11-22 02:14:00,
2013-11-21 21:19:00,43.6,39.1,30.36,West,274,0.0,0.0,84,0.00,,,0.00,WUHU216DAVISVP2,2013-11-22 02:19:00,
2013-11-21 21:24:00,43.5,39.0,30.36,West,274,0.0,0.0,84,0.00,,,0.00,WUHU216DAVISVP2,2013-11-22 02:24:00,
2013-11-21 21:29:00,43.4,38.9,30.36,West,274,0.0,0.0,84,0.00,,,0.00,WUHU216DAVISVP2,2013-11-22 02:29:00,
2013-11-21 21:34:00,43.4,38.9,30.36,West,274,0.0,0.0,84,0.00,,,0.00,WUHU216DAVISVP2,2013-11-22 02:34:00,
2013-11-21 21:39:00,43.3,38.8,30.36,West,274,0.0,0.0,84,0.00,,,0.00,WUHU216DAVISVP2,2013-11-22 02:39:00,
2013-11-21 21:44:00,43.2,38.7,30.36,West,274,0.0,0.0,84,0.00,,,0.00,WUHU216DAVISVP2,2013-11-22 02:44:00,
2013-11-21 21:49:00,43.1,38.6,30.36,West,274,0.0,0.0,84,0.00,,,0.00,WUHU216DAVISVP2,2013-11-22 02:49:00,
2013-11-21 21:54:00,43.1,38.6,30.36,West,274,0.0,0.0,84,0.00,,,0.00,WUHU216DAVISVP2,2013-11-22 02:54:00,
2013-11-21 21:59:00,43.0,38.8,30.35,West,274,0.0,0.0,85,0.00,,,0.00,WUHU216DAVISVP2,2013-11-22 02:59:00,
2013-11-21 22:04:00,42.9,38.7,30.36,West,274,0.0,0.0,85,0.00,,,0.00,WUHU216DAVISVP2,2013-11-22 03:04:00,
2013-11-21 22:09:00,42.8,38.6,30.35,West,274,0.0,0.0,85,0.00,,,0.00,WUHU216DAVISVP2,2013-11-22 03:09:00,
2013-11-21 22:14:00,42.8,38.6,30.35,West,274,0.0,0.0,85,0.00,,,0.00,WUHU216DAVISVP2,2013-11-22 03:14:00,
2013-11-21 22:19:00,42.7,38.5,30.35,West,274,0.0,0.0,85,0.00,,,0.00,WUHU216DAVISVP2,2013-11-22 03:19:00,
2013-11-21 22:24:00,42.6,38.4,30.35,West,274,0.0,0.0,85,0.00,,,0.00,WUHU216DAVISVP2,2013-11-22 03:24:00,
2013-11-21 22:29:00,42.6,38.4,30.34,West,274,0.0,0.0,85,0.00,,,0.00,WUHU216DAVISVP2,2013-11-22 03:29:00,
2013-11-21 22:34:00,42.4,38.5,30.34,West,274,0.0,0.0,86,0.00,,,0.00,WUHU216DAVISVP2,2013-11-22 03:34:00,
2013-11-21 22:39:00,42.4,38.5,30.34,West,274,0.0,0.0,86,0.00,,,0.00,WUHU216DAVISVP2,2013-11-22 03:39:00,
2013-11-21 22:44:00,42.3,38.4,30.34,West,274,0.0,0.0,86,0.00,,,0.00,WUHU216DAVISVP2,2013-11-22 03:44:00,
2013-11-21 22:49:00,42.3,38.4,30.34,West,274,0.0,0.0,86,0.00,,,0.00,WUHU216DAVISVP2,2013-11-22 03:49:00,
2013-11-21 22:54:00,42.3,38.4,30.34,West,274,0.0,0.0,86,0.00,,,0.00,WUHU216DAVISVP2,2013-11-22 03:54:00,
2013-11-21 22:59:00,42.3,38.4,30.34,West,274,0.0,0.0,86,0.00,,,0.00,WUHU216DAVISVP2,2013-11-22 03:59:00,
2013-11-21 23:04:00,42.3,38.7,30.34,West,274,0.0,0.0,87,0.00,,,0.00,WUHU216DAVISVP2,2013-11-22 04:04:00,
2013-11-21 23:09:00,42.3,38.7,30.34,West,274,0.0,0.0,87,0.00,,,0.00,WUHU216DAVISVP2,2013-11-22 04:09:00,
2013-11-21 23:13:00,42.4,38.8,30.33,West,274,0.0,0.0,87,0.00,,,0.00,WUHU216DAVISVP2,2013-11-22 04:13:00,
2013-11-21 23:18:00,42.4,38.8,30.33,West,274,0.0,0.0,87,0.00,,,0.00,WUHU216DAVISVP2,2013-11-22 04:18:00,
2013-11-21 23:23:00,42.4,38.8,30.33,West,274,0.0,0.0,87,0.00,,,0.00,WUHU216DAVISVP2,2013-11-22 04:23:00,
2013-11-21 23:28:00,42.4,38.8,30.33,West,274,0.0,0.0,87,0.00,,,0.00,WUHU216DAVISVP2,2013-11-22 04:28:00,
2013-11-21 23:33:00,42.4,38.8,30.33,West,274,0.0,0.0,87,0.00,,,0.00,WUHU216DAVISVP2,2013-11-22 04:33:00,
2013-11-21 23:38:00,42.3,38.4,30.33,West,274,0.0,0.0,86,0.00,,,0.00,WUHU216DAVISVP2,2013-11-22 04:38:00,
2013-11-21 23:43:00,42.3,38.4,30.33,West,274,0.0,0.0,86,0.00,,,0.00,WUHU216DAVISVP2,2013-11-22 04:43:00,
2013-11-21 23:48:00,42.3,38.7,30.33,West,274,0.0,0.0,87,0.00,,,0.00,WUHU216DAVISVP2,2013-11-22 04:48:00,
2013-11-21 23:53:00,42.3,38.7,30.33,West,274,0.0,0.0,87,0.00,,,0.00,WUHU216DAVISVP2,2013-11-22 04:53:00,
2013-11-21 23:58:00,42.3,38.7,30.33,West,274,0.0,0.0,87,0.00,,,0.00,WUHU216DAVISVP2,2013-11-22 04:58:00,